Wind_Speed
47 49 53 56 55 56 53 52 54 54 57 56 54 56 55 56 58 60 60 59 59 59 61 62 60 58 56 54 56 54 55 55 51 51 53 47 45 45 49 50 50 54 55
51 52 54 55 56 55 56 57 56 57 54 54 55 55 58 58 58 59 59 60 59 59 61 64 66 65 61 58 58 57 57 58 54 54 50 49 50 42 45 40 44 43 48
50 53 53 54 54 55 55 54 54 52 53 55 56 56 56 57 59 60 62 65 67 67 66 66 68 71 69 68 64 64 61 61 60 58 56 50 51 45 39 42 36 40 34
45 44 44 45 47 49 50 48 49 50 52 54 55 56 58 61 65 66 67 67 67 68 69 69 65 64 68 73 69 68 67 66 65 62 60 55 52 47 37 33 30 40 36
41 43 42 42 44 44 43 45 47 49 51 54 56 60 65 65 67 69 69 71 71 71 69 68 65 64 66 71 58 67 70 69 63 60 57 54 46 46 37 33 28 34 28
43 43 43 43 43 41 43 45 46 50 54 59 63 67 66 69 74 75 75 75 76 75 67 63 64 63 61 63 59 70 68 62 53 54 54 52 43 43 42 39 38 33 34
44 44 44 43 38 41 42 44 49 54 58 64 66 69 73 77 80 83 84 83 71 61 59 59 57 54 51 49 52 52 56 58 46 44 41 40 40 35 42 46 43 43 42
45 42 40 36 39 39 42 47 50 57 63 66 71 75 78 83 83 77 75 63 54 51 49 50 45 40 41 40 42 45 50 46 39 39 38 35 37 39 37 37 38 38 40
39 35 34 36 35 39 42 49 56 63 67 70 75 81 84 81 71 61 56 45 43 39 43 38 34 36 41 41 41 43 39 37 42 37 32 33 34 32 39 35 41 48 46
30 31 30 32 34 40 47 53 58 61 66 72 78 77 75 72 65 55 44 34 32 34 34 25 21 23 32 37 32 33 31 36 38 29 28 38 42 37 41 47 46 44 40
26 26 29 32 36 42 47 50 58 65 69 70 67 69 70 58 41 33 27 26 27 27 19 18 17 17 16 24 31 29 31 43 33 28 39 34 28 40 44 44 41 36 35
20 23 27 31 36 43 47 54 59 64 63 60 58 51 41 25 17 17 22 22 24 17 8 12 11 11 17 24 21 22 19 25 26 34 37 39 48 49 48 42 39 30 25
20 22 27 34 40 47 49 54 58 58 54 52 44 34 28 21 14 12 14 18 19 13 18 6 4 10 20 21 22 20 18 35 34 35 38 42 43 41 36 31 25 24 23
20 23 30 36 42 43 47 53 54 48 50 40 34 27 19 15 7 8 16 18 19 23 6 6 6 14 20 30 30 28 34 42 42 41 37 37 36 31 28 25 24 24 22
21 25 32 36 37 41 46 48 47 43 40 32 25 20 17 10 3 10 19 26 28 23 16 11 17 27 33 36 32 33 40 39 36 34 31 24 22 23 23 22 20 17 16
20 26 29 32 36 40 43 42 39 39 32 24 19 14 12 8 6 18 25 25 35 13 13 21 20 24 33 32 30 29 31 32 29 25 22 23 22 21 21 21 19 17 17
22 23 29 31 36 41 41 38 33 35 25 16 10 13 15 19 26 29 32 30 28 17 28 26 27 37 32 33 33 30 25 21 22 22 21 21 22 20 18 18 18 20 20
18 22 28 31 36 41 41 33 30 30 21 8 4 12 14 18 22 22 30 27 20 18 26 29 33 33 30 32 30 28 26 25 24 24 25 25 25 24 22 22 21 19 16
17 22 28 31 36 40 38 31 29 33 17 4 1 9 11 12 20 25 27 31 28 27 30 35 32 29 25 24 24 24 22 21 21 22 24 26 26 23 20 17 15 15 14
17 22 26 30 35 39 35 31 31 31 10 9 6 10 10 8 16 17 29 36 34 31 28 29 31 31 27 24 20 22 21 21 21 22 23 23 20 15 16 16 14 12 9
18 21 26 28 33 37 35 33 36 26 7 10 9 12 14 15 20 25 38 38 35 36 29 28 32 31 25 22 21 21 17 15 14 15 16 17 17 18 17 16 13 11 12
17 19 23 26 30 33 32 31 35 21 8 7 9 8 20 19 20 31 31 36 34 28 28 31 32 26 23 21 19 17 14 13 13 14 15 14 14 14 13 10 9 11 13
16 16 20 22 26 30 31 31 32 18 7 9 5 11 25 27 30 32 28 27 30 26 27 31 28 25 20 20 19 19 17 14 13 14 15 16 15 13 11 8 8 12 16
16 14 15 18 20 25 28 28 28 22 7 5 12 24 27 37 29 32 30 28 26 24 24 24 26 23 23 23 21 20 18 14 13 15 18 18 16 14 11 8 8 13 24
14 13 10 14 15 20 22 25 24 24 12 14 26 25 34 31 32 32 33 29 28 25 23 22 22 24 26 26 24 20 17 15 15 18 18 17 15 12 9 6 10 18 19
11 11 9 9 12 14 18 19 20 19 17 10 30 22 39 32 34 35 32 30 29 26 24 24 25 26 25 25 24 21 18 16 15 15 17 16 14 12 7 3 15 11 19
Wind_Direction
274 277 278 278 278 278 282 282 284 289 289 286 283 285 284 282 282 283 284 282 284 283 282 280 277 274 271 269 269 269 268 269 270 272 274 276 274 271 253 255 259 270 285
274 274 275 277 279 281 281 284 286 285 283 284 286 284 285 285 283 281 281 280 277 275 274 274 274 272 268 266 266 267 268 267 266 270 269 275 275 274 261 256 268 270 270
274 275 276 276 277 277 279 281 282 282 283 286 285 285 284 283 282 282 282 281 279 276 274 271 268 268 269 268 263 262 262 262 265 267 267 274 271 268 268 250 262 274 239
272 274 273 273 274 276 278 280 281 285 287 288 286 285 285 284 283 282 281 281 282 282 282 280 277 271 268 268 264 261 259 258 259 264 264 270 263 260 258 237 243 257 238
281 281 275 277 277 278 281 285 287 288 288 288 287 286 286 286 285 284 284 285 285 286 285 283 279 273 269 269 268 252 253 253 256 261 262 262 254 251 242 228 233 239 238
283 282 278 282 282 285 289 291 290 292 291 290 290 290 287 285 286 285 284 286 286 285 284 276 276 272 268 269 264 247 242 242 245 254 253 253 248 242 221 222 225 237 249
281 284 282 286 286 289 289 290 292 292 294 294 293 291 289 288 288 288 289 289 289 277 270 272 270 271 268 261 258 245 241 242 236 239 241 241 226 212 206 212 221 232 248
281 284 286 286 289 290 293 294 296 298 298 296 294 292 291 291 292 292 289 287 285 274 271 268 265 258 254 254 249 239 239 234 226 218 215 209 201 205 207 219 222 227 212
285 285 287 290 292 294 296 298 300 300 297 296 295 296 296 295 295 289 287 279 276 266 264 256 257 260 252 251 240 232 226 230 233 203 197 198 201 196 204 187 185 199 207
282 285 289 294 296 298 301 304 302 300 300 302 304 301 301 297 291 283 273 269 261 257 249 255 262 263 244 242 224 224 234 203 189 178 194 219 218 202 194 187 195 202 201
282 288 295 295 300 306 307 302 303 304 309 310 310 310 307 299 282 270 254 253 249 243 247 257 247 219 215 220 222 228 212 179 175 197 206 211 188 181 183 185 187 187 198
287 295 296 304 310 309 304 307 308 315 317 317 318 321 325 312 282 247 246 242 226 227 211 163 184 210 217 220 219 214 213 211 195 169 181 185 173 172 178 179 179 190 186
291 296 306 306 307 309 311 312 319 322 322 321 321 322 329 324 303 263 237 212 196 164 143 138 152 215 199 225 223 222 196 176 164 182 180 179 179 175 172 167 173 182 192
295 304 311 314 314 315 318 323 325 326 327 324 326 329 341 356 38 155 191 175 167 154 132 133 153 186 197 190 191 204 185 183 182 181 181 173 160 150 150 164 176 186 192
304 308 315 318 319 324 326 328 327 330 330 328 329 338 353 14 66 140 155 151 148 142 131 160 173 174 160 158 159 169 171 173 172 169 153 139 143 151 163 177 185 188 188
315 319 326 325 328 328 333 332 330 335 334 334 330 347 1 1 142 132 131 140 153 145 117 149 153 143 126 126 125 128 141 138 135 138 149 155 158 165 173 181 185 193 202
319 326 333 331 334 336 339 336 332 338 336 343 358 68 72 79 103 129 135 139 160 153 153 158 152 129 134 137 135 131 129 134 142 146 152 156 159 164 170 180 186 194 205
326 331 340 337 338 343 345 338 331 336 332 346 21 102 113 111 120 124 128 138 156 165 159 162 157 146 158 157 142 137 141 141 141 146 150 158 161 164 171 181 185 197 203
329 339 345 341 344 347 348 340 334 333 323 262 205 157 112 142 141 135 146 152 156 158 153 154 151 156 166 155 154 145 141 144 148 156 160 165 170 178 180 182 186 189 195
336 344 346 345 348 349 351 345 339 340 318 194 193 185 174 168 155 152 157 154 155 158 159 160 164 165 178 179 153 141 148 157 158 162 170 173 174 172 172 176 181 187 193
339 346 349 349 348 354 354 353 350 358 1 173 166 173 173 133 140 164 157 147 154 162 169 175 180 180 188 187 172 149 146 147 150 160 167 171 172 171 176 185 199 225 239
337 343 350 350 350 358 0 2 1 13 59 121 157 178 176 176 155 162 158 158 155 162 173 182 186 189 196 190 174 165 157 158 163 170 173 175 167 173 182 202 224 246 259
331 342 347 350 352 1 10 8 9 20 72 124 147 174 161 173 164 163 171 172 171 174 186 194 193 193 204 206 188 180 185 176 172 171 170 169 177 182 190 211 245 266 277
321 331 341 348 350 2 12 11 17 22 65 94 135 149 147 151 159 168 171 168 175 181 188 194 200 212 209 194 189 193 195 188 181 180 177 175 183 185 192 212 260 290 281
315 320 330 341 349 358 6 15 15 23 39 111 136 144 156 162 164 172 171 175 181 190 197 199 196 198 194 193 193 199 198 200 194 186 184 184 187 195 207 234 286 293 299
322 306 309 325 335 350 358 7 18 21 36 115 148 159 164 164 168 180 182 187 196 199 192 191 195 198 198 199 197 203 207 207 206 198 194 193 197 206 205 247 286 321 149
Height
5719 5718 5716 5713 5710 5708 5705 5703 5702 5700 5698 5696 5693 5691 5688 5686 5683 5682 5680 5678 5675 5674 5672 5672 5673 5673 5675 5676 5677 5679 5680 5680 5683 5687 5686 5691 5693 5695 5700 5708 5713 5715 5715
5707 5705 5703 5701 5698 5696 5693 5690 5689 5687 5684 5681 5678 5675 5672 5669 5666 5664 5661 5658 5658 5658 5657 5656 5655 5655 5658 5660 5660 5662 5664 5665 5667 5671 5674 5676 5677 5681 5686 5692 5696 5702 5700
5694 5692 5691 5689 5686 5683 5681 5679 5676 5672 5669 5666 5662 5659 5655 5652 5649 5645 5643 5641 5639 5639 5639 5638 5637 5635 5638 5638 5641 5643 5645 5648 5652 5654 5658 5662 5663 5669 5674 5681 5685 5692 5693
5684 5681 5679 5676 5674 5671 5668 5665 5661 5658 5654 5650 5646 5642 5638 5635 5631 5627 5624 5621 5618 5616 5613 5612 5611 5611 5613 5614 5618 5621 5625 5628 5633 5637 5641 5647 5650 5657 5664 5669 5675 5681 5687
5671 5668 5665 5663 5660 5657 5655 5652 5648 5644 5640 5636 5631 5626 5621 5615 5610 5605 5600 5597 5594 5592 5590 5588 5587 5586 5588 5588 5593 5597 5603 5608 5615 5619 5624 5629 5637 5644 5652 5660 5665 5671 5678
5659 5656 5653 5649 5647 5645 5642 5638 5634 5630 5625 5620 5614 5608 5602 5596 5589 5582 5577 5575 5571 5568 5567 5564 5561 5561 5562 5563 5565 5571 5579 5586 5593 5601 5606 5611 5622 5628 5637 5647 5656 5663 5670
5647 5645 5642 5639 5638 5634 5630 5627 5622 5617 5611 5604 5596 5588 5580 5571 5563 5555 5549 5546 5545 5543 5543 5541 5538 5536 5537 5539 5542 5549 5560 5569 5574 5580 5589 5597 5604 5614 5623 5632 5643 5652 5659
5636 5635 5632 5630 5627 5624 5620 5615 5609 5602 5594 5585 5576 5567 5558 5548 5537 5527 5520 5520 5519 5520 5521 5520 5519 5520 5523 5526 5531 5537 5547 5556 5560 5565 5575 5584 5594 5603 5612 5622 5633 5640 5650
5627 5625 5623 5620 5618 5614 5609 5603 5595 5587 5577 5567 5555 5543 5529 5518 5509 5502 5498 5500 5501 5502 5503 5504 5507 5508 5512 5517 5521 5526 5538 5546 5549 5559 5567 5577 5586 5594 5602 5613 5622 5635 5645
5618 5617 5614 5611 5607 5603 5597 5590 5582 5572 5561 5547 5532 5514 5501 5491 5483 5480 5480 5484 5485 5489 5491 5497 5500 5500 5503 5509 5518 5525 5531 5537 5546 5554 5559 5566 5577 5585 5597 5608 5620 5629 5639
5611 5608 5605 5602 5598 5592 5586 5578 5568 5555 5543 5526 5511 5494 5475 5460 5457 5460 5466 5471 5475 5481 5488 5492 5495 5497 5502 5508 5513 5517 5525 5530 5537 5548 5556 5564 5572 5579 5593 5603 5613 5624 5635
5603 5601 5598 5593 5588 5583 5575 5565 5552 5540 5524 5509 5495 5479 5461 5450 5449 5452 5458 5462 5469 5480 5484 5488 5495 5498 5503 5507 5510 5516 5524 5530 5535 5547 5558 5564 5571 5579 5588 5598 5610 5622 5632
5596 5594 5590 5585 5580 5572 5563 5551 5539 5525 5511 5498 5484 5473 5464 5457 5453 5454 5456 5461 5472 5480 5486 5489 5495 5499 5502 5504 5511 5518 5524 5533 5543 5550 5558 5565 5572 5578 5587 5598 5610 5621 5629
5589 5586 5583 5577 5569 5561 5551 5538 5526 5515 5502 5490 5479 5470 5462 5459 5456 5456 5459 5466 5476 5485 5489 5494 5497 5500 5506 5508 5515 5521 5530 5538 5545 5552 5558 5564 5570 5579 5591 5602 5611 5619 5626
5582 5580 5575 5568 5560 5552 5541 5529 5518 5507 5497 5486 5478 5471 5464 5464 5463 5464 5468 5474 5483 5491 5495 5498 5501 5504 5507 5512 5519 5525 5532 5541 5547 5553 5560 5568 5577 5586 5596 5604 5611 5617 5623
5576 5573 5567 5560 5552 5543 5533 5523 5511 5503 5493 5486 5480 5473 5467 5465 5468 5473 5479 5484 5492 5496 5502 5503 5507 5510 5514 5520 5526 5531 5538 5544 5551 5559 5569 5576 5583 5590 5597 5604 5610 5616 5623
5571 5566 5560 5553 5545 5537 5526 5516 5508 5500 5492 5487 5483 5478 5476 5474 5472 5477 5485 5493 5501 5504 5507 5511 5515 5518 5525 5530 5533 5537 5545 5554 5561 5568 5575 5582 5589 5595 5601 5607 5612 5617 5621
5565 5561 5555 5548 5539 5530 5520 5511 5504 5498 5492 5489 5487 5484 5485 5486 5488 5489 5493 5499 5504 5506 5511 5517 5522 5524 5531 5536 5540 5546 5554 5560 5566 5572 5578 5584 5590 5595 5599 5604 5608 5613 5618
5560 5555 5549 5542 5534 5525 5516 5507 5500 5494 5489 5488 5488 5489 5488 5490 5493 5495 5498 5502 5507 5512 5517 5520 5524 5530 5536 5544 5547 5553 5560 5565 5570 5575 5580 5585 5590 5594 5598 5603 5608 5610 5614
5556 5551 5546 5538 5531 5522 5513 5504 5497 5489 5483 5486 5488 5490 5493 5493 5494 5496 5501 5506 5511 5517 5522 5525 5531 5536 5541 5549 5555 5559 5563 5568 5572 5576 5581 5585 5589 5594 5599 5603 5606 5609 5612
5552 5547 5542 5536 5529 5521 5512 5503 5494 5486 5482 5486 5489 5492 5496 5497 5500 5501 5504 5509 5515 5521 5526 5530 5535 5540 5546 5551 5556 5561 5565 5569 5573 5577 5581 5585 5589 5594 5599 5602 5605 5608 5609
5548 5544 5540 5535 5528 5521 5513 5504 5496 5489 5487 5489 5491 5493 5497 5501 5503 5509 5512 5517 5522 5526 5530 5534 5540 5546 5551 5556 5560 5564 5566 5569 5573 5577 5581 5586 5589 5593 5597 5601 5603 5603 5603
5544 5542 5538 5533 5528 5522 5514 5506 5500 5495 5492 5491 5493 5495 5499 5503 5506 5512 5518 5523 5527 5531 5535 5539 5545 5551 5555 5558 5561 5565 5567 5570 5574 5579 5582 5586 5590 5593 5596 5598 5600 5599 5598
5540 5538 5536 5532 5528 5523 5517 5510 5504 5500 5497 5494 5494 5499 5503 5507 5514 5519 5524 5528 5532 5535 5539 5544 5548 5552 5556 5559 5562 5564 5567 5571 5575 5580 5583 5587 5591 5594 5595 5597 5598 5597 5595
5536 5535 5534 5531 5528 5524 5520 5515 5508 5504 5502 5499 5502 5507 5511 5515 5518 5524 5528 5532 5535 5538 5541 5545 5548 5552 5556 5558 5561 5566 5569 5573 5578 5581 5584 5587 5589 5591 5593 5594 5594 5591 5587
5532 5531 5531 5529 5527 5524 5521 5518 5514 5509 5508 5508 5508 5513 5517 5518 5521 5524 5528 5531 5534 5537 5540 5544 5548 5552 5556 5559 5562 5566 5569 5572 5576 5580 5582 5585 5588 5590 5592 5593 5592 5587 5586